This is the latest recevied weather packets stored in our database for station/object SA4AGM-10. If no packets are shown the sender has not sent any weather packets the latest 10 day(s).
| Time | Temp. | Humidity | Pressure | Rain* | Wind** | Luminosity | Snow |
|---|---|---|---|---|---|---|---|
| 1777653522 | 23.33° C | 23% | 1015.2 hPa | - | - | - | - |
| 1777652622 | 25° C | 21% | 1015.4 hPa | - | - | - | - |
| 1777651722 | 26.11° C | 20% | 1015.4 hPa | - | - | - | - |
| 1777650822 | 26.67° C | 21% | 1015.6 hPa | - | - | - | - |
| 1777649922 | 26.11° C | 20% | 1015.6 hPa | - | - | - | - |
| 1777649022 | 26.67° C | 19% | 1015.8 hPa | - | - | - | - |
| 1777648122 | 27.22° C | 19% | 1015.8 hPa | - | - | - | - |
| 1777647222 | 27.78° C | 18% | 1016 hPa | - | - | - | - |
| 1777646322 | 28.33° C | 19% | 1016.2 hPa | - | - | - | - |
| 1777645422 | 28.33° C | 19% | 1016.3 hPa | - | - | - | - |
| 1777644521 | 28.33° C | 18% | 1016.4 hPa | - | - | - | - |
| 1777643621 | 27.78° C | 19% | 1016.7 hPa | - | - | - | - |
| 1777642721 | 28.33° C | 19% | 1016.8 hPa | - | - | - | - |
| 1777641821 | 28.33° C | 19% | 1016.9 hPa | - | - | - | - |
| 1777640921 | 28.33° C | 20% | 1017.2 hPa | - | - | - | - |
| 1777640021 | 27.78° C | 19% | 1017.1 hPa | - | - | - | - |
| 1777639121 | 27.22° C | 19% | 1017.5 hPa | - | - | - | - |
| 1777638220 | 27.78° C | 19% | 1017.6 hPa | - | - | - | - |
| 1777637320 | 27.78° C | 19% | 1017.7 hPa | - | - | - | - |
| 1777636420 | 27.78° C | 18% | 1017.8 hPa | - | - | - | - |
| 1777635520 | 27.78° C | 17% | 1018 hPa | - | - | - | - |
| 1777634620 | 28.89° C | 19% | 1018.1 hPa | - | - | - | - |
| 1777633720 | 27.78° C | 19% | 1018.4 hPa | - | - | - | - |
| 1777632820 | 27.22° C | 19% | 1018.6 hPa | - | - | - | - |
| 1777631920 | 28.33° C | 21% | 1018.7 hPa | - | - | - | - |
* Rain since midnight (hover to see other rain measurements)
** Current wind speed in m/s (hover to see current wind gust speed)